Weather History for KBLH - January, 2014

Change the Weather History Date:

Monday, January 13, 2014

  Actual Average Record
Temperature  
Mean Temperature 62 °F -  
Max Temperature 73 °F 66 °F 77 °F (1983)
Min Temperature 52 °F 41 °F 28 °F (2013)
Degree Days  
Heating Degree Days 2    
Growing Degree Days 12 (Base 50)    
Moisture  
Dew Point 15 °F    
Average Humidity 17    
Maximum Humidity 23    
Minimum Humidity 12    
Precipitation  
Precipitation 0.00 in - - ()
Sea Level Pressure  
Sea Level Pressure 30.30 in    
Wind  
Wind Speed 12 mph (North)    
Max Wind Speed 20 mph    
Max Gust Speed 32 mph    
Visibility 10 miles    
Events      
Averages and records for this station are not official NWS values.
T = Trace of Precipitation, MM = Missing Value Source: NWS Daily Summary

Daily Weather History Graph

Daily Weather History Graph

Search for Another Location

Airport or City:

Trip Planner

Search our weather history database for the weather conditions in past years. The results will help you decide how hot, cold, wet, or windy it might be!

Date:

Astronomy

Jan. 13, 2014 Rise Set
Actual Time 6:43 AM PST 4:51 PM PST
Civil Twilight 6:16 AM PST 5:19 PM PST
Nautical Twilight 5:45 AM PST 5:49 PM PST
Astronomical Twilight 5:15 AM PST 6:19 PM PST
Moon 3:09 PM PST (1/13) 4:36 AM PST (1/13)
Length of Visible Light 11h 02m
Length of Day
10h 08m
Waxing Gibbous, 95% of the Moon is Illuminated
Jan 13
Waxing Gibbous
Jan 15
Full
Jan 23
Last Quarter
Jan 30
New
Feb 6
First Quarter

Hourly Weather History & Observations

Time (PST) Temp. Dew Point Humidity Pressure Visibility Wind Dir Wind Speed Gust Speed Precip Events Conditions
12:52 AM 53.1 °F 10.9 °F 19% 30.25 in 10.0 mi North 6.9 mph - N/A   Clear
1:52 AM 57.0 °F 10.0 °F 15% 30.26 in 10.0 mi NNW 16.1 mph - N/A   Clear
2:52 AM 55.9 °F 10.0 °F 16% 30.26 in 10.0 mi North 17.3 mph - N/A   Clear
3:52 AM 52.0 °F 10.9 °F 19% 30.28 in 10.0 mi WSW 5.8 mph - N/A   Clear
4:52 AM 55.9 °F 10.9 °F 17% 30.29 in 10.0 mi NNW 12.7 mph - N/A   Clear
5:52 AM 53.1 °F 12.0 °F 20% 30.31 in 10.0 mi NNE 6.9 mph - N/A   Clear
6:52 AM 52.0 °F 12.0 °F 20% 30.33 in 10.0 mi North 9.2 mph - N/A   Clear
7:52 AM 57.9 °F 12.9 °F 17% 30.36 in 10.0 mi North 13.8 mph - N/A   Clear
8:52 AM 62.1 °F 15.1 °F 16% 30.38 in 10.0 mi North 13.8 mph - N/A   Clear
9:52 AM 66.0 °F 15.1 °F 14% 30.39 in 10.0 mi North 19.6 mph 24.2 mph N/A   Clear
10:52 AM 68.0 °F 16.0 °F 14% 30.37 in 10.0 mi North 17.3 mph - N/A   Clear
11:52 AM 70.0 °F 16.0 °F 13% 30.34 in 10.0 mi North 19.6 mph - N/A   Clear
12:52 PM 72.0 °F 17.1 °F 12% 30.31 in 10.0 mi North 16.1 mph 32.2 mph N/A   Clear
1:52 PM 73.0 °F 17.1 °F 12% 30.29 in 10.0 mi NNW 17.3 mph 24.2 mph N/A   Clear
2:52 PM 73.0 °F 17.1 °F 12% 30.28 in 10.0 mi North 15.0 mph - N/A   Clear
3:52 PM 73.0 °F 18.0 °F 12% 30.27 in 10.0 mi North 12.7 mph - N/A   Clear
4:52 PM 68.0 °F 17.1 °F 14% 30.27 in 10.0 mi NNW 12.7 mph - N/A   Clear
5:52 PM 60.1 °F 18.0 °F 20% 30.28 in 10.0 mi East 3.5 mph - N/A   Clear
6:52 PM 61.0 °F 17.1 °F 18% 30.28 in 10.0 mi NNE 9.2 mph - N/A   Clear
7:52 PM 57.9 °F 16.0 °F 19% 30.29 in 10.0 mi North 13.8 mph - N/A   Clear
8:52 PM 55.9 °F 17.1 °F 22% 30.30 in 10.0 mi North 11.5 mph - N/A   Clear
9:52 PM 57.0 °F 18.0 °F 22% 30.31 in 10.0 mi North 10.4 mph - N/A   Clear
10:52 PM 57.0 °F 19.0 °F 23% 30.30 in 10.0 mi NNW 9.2 mph 19.6 mph N/A   Clear
11:52 PM 57.9 °F 18.0 °F 21% 30.29 in 10.0 mi North 16.1 mph - N/A   Clear